Location: Aubervilles
(48.9167°N, 2.3833°E)
Time: 09:32:25
(UTC+00:00)

COSMOS 2428 - Pass Details

Date: 03 February 2023
Orbit: 843 x 858 km, 70.9° (Epoch: 29 March)

Event Time Altitude Azimuth Distance (km) Brightness Sun altitude
Rises 20:10:08 0° 211° (SSW) 3,391 6.1 -32.8°
Reaches altitude 10° 20:12:34 10° 213° (SSW) 2,459 5.3 -33.2°
Enters shadow 20:14:30 22° 216° (SW) 1,751 4.5 -33.5°
